Location: Gradaro
(45.0833°N, 10.8833°E)
Time: 10:28:18
(UTC+00:00)

FENGYUN 1C DEB - Pass Details

Date: 25 June 2021
Orbit: 803 x 830 km, 98.8° (Epoch: 28 July)

Event Time Altitude Azimuth Distance (km) Brightness Sun altitude
Exits shadow 22:58:34 13° 242° (WSW) 2,201 ? -21.4°
Maximum altitude 23:00:51 16° 270° (W) 1,996 ? -21.4°
Drops below altitude 10° 23:04:06 10° 308° (NW) 2,409 ? -21.5°
Sets 23:07:24 0° 330° (NNW) 3,353 ? -21.5°
